FW9528 Weather Reports


time (UTC)temp
F
wind
direction
speed
knots
gust
knots
rain 1hr
in
rain 24hr
in
rain mn
in
humidity
%
barometer
mb
20260504041540 52 219 4.3 10.4 0.00 0.04 0.00 70 1010.3
20260504040049 53 200 6.1 10.4 0.00 0.04 0.00 68 1010.6
20260504034551 52 217 4.3 9.6 0.00 0.04 0.04 70 1010.8
20260504033046 53 235 1.7 6.1 0.00 0.04 0.04 69 1010.9
20260504031602 54 180 0.9 7.0 0.00 0.04 0.04 68 1011.0
20260504030043 54 228 2.6 6.1 0.00 0.04 0.04 68 1011.1
20260504024546 54 206 1.7 4.3 0.00 0.04 0.04 68 1011.3
20260504023039 54 194 0.0 4.3 0.00 0.04 0.04 67 1011.2
20260504021545 54 193 0.0 4.3 0.00 0.04 0.04 67 1011.3
20260504020043 55 227 0.0 6.1 0.00 0.04 0.04 67 1011.4
20260504014544 55 191 0.9 7.0 0.00 0.04 0.04 66 1011.5
20260504013042 55 0 0.0 2.6 0.00 0.04 0.04 64 1011.5
20260504011553 56 217 0.9 7.0 0.00 0.04 0.04 64 1011.6
20260504010045 56 219 4.3 7.0 0.00 0.04 0.04 61 1011.6
20260504004546 56 219 2.6 7.0 0.00 0.04 0.04 60 1011.5
20260504003048 57 218 3.5 9.6 0.00 0.04 0.04 59 1011.6
20260504001601 57 236 6.1 13.0 0.00 0.04 0.04 58 1011.5
20260504000041 57 235 5.2 10.4 0.00 0.04 0.04 58 1011.6
20260503234540 58 217 5.2 9.6 0.00 0.04 0.04 56 1011.6
20260503233045 58 247 7.0 12.2 0.00 0.04 0.04 55 1011.6
20260503231550 58 235 6.1 12.2 0.00 0.04 0.04 55 1011.5
20260503230044 58 230 7.8 12.2 0.00 0.04 0.04 55 1011.3
20260503224548 54 200 2.6 7.8 0.00 0.04 0.04 68 1011.7
20260503223043 53 144 5.2 12.2 0.00 0.04 0.04 69 1011.8
20260503221545 53 143 5.2 11.3 0.00 0.04 0.04 70 1012.3
20260503220050 53 117 7.8 11.3 0.00 0.04 0.04 69 1012.1
20260503214552 53 139 7.0 10.4 0.00 0.04 0.04 73 1012.5
20260503213112 53 116 7.8 10.4 0.00 0.04 0.04 72 1012.8
20260503211613 52 130 6.1 11.3 0.00 0.04 0.04 76 1013.3
20260503210039 51 126 5.2 8.7 0.00 0.04 0.04 77 1013.5
20260503204601 49 121 5.2 7.8 0.01 0.04 0.04 77 1013.7
20260503203046 49 117 7.0 9.6 0.04 0.04 0.04 77 1014.2
20260503201549 49 121 6.1 7.8 0.04 0.04 0.04 75 1014.7
20260503200043 48 102 2.6 6.1 0.04 0.04 0.04 76 1015.3
20260503194548 48 255 6.1 14.8 0.03 0.03 0.03 73 1016.2
20260503193040 50 236 10.4 18.2 0.00 0.00 0.00 66 1016.6
20260503191601 55 296 11.3 17.4 0.00 0.00 0.00 53 1015.9
20260503190040 57 255 12.2 21.7 0.00 0.00 0.00 48 1015.4
20260503184603 57 255 10.4 22.6 0.00 0.00 0.00 45 1015.3
20260503183049 58 230 9.6 20.9 0.00 0.00 0.00 44 1015.6
20260503181551 58 232 12.2 22.6 0.00 0.00 0.00 43 1015.7
20260503180050 59 236 13.0 22.6 0.00 0.00 0.00 42 1016.0
20260503174603 59 261 12.2 19.1 0.00 0.00 0.00 42 1016.4
20260503173048 58 238 9.6 18.2 0.00 0.00 0.00 42 1016.6
20260503171544 59 227 10.4 20.9 0.00 0.00 0.00 44 1016.6
20260503081554 38 229 3.5 4.3 0.00 0.00 0.00 69 1017.2
20260503071603 38 177 1.7 4.3 0.00 0.00 0.00 69 1017.2
20260503054554 37 209 2.6 4.3 0.00 0.00 0.00 75 1017.8
20260503053048 34 193 0.9 2.6 0.00 0.00 0.00 82 1017.8
20260503051547 33 0 0.0 0.9 0.00 0.00 0.00 81 1017.9
20260503050046 33 0 0.0 0.0 0.00 0.00 0.00 79 1018.0
20260503044544 35 0 0.0 0.9 0.00 0.00 0.00 78 1017.9
20260503043045 36 0 0.0 0.9 0.00 0.00 0.00 76 1017.9